This is the latest recevied weather packets stored in our database for station/object K9RJT. If no packets are shown the sender has not sent any weather packets the latest 10 day(s).
| Time | Temp. | Humidity | Pressure | Rain* | Wind** | Luminosity | Snow |
|---|---|---|---|---|---|---|---|
| 1778099416 | 25° C | 30% | 1013.1 hPa | 0 mm | - | 673 W/m² | - |
| 1778099114 | 25.56° C | 34% | 1013 hPa | 0 mm | - | 675 W/m² | - |
| 1778098810 | 25.56° C | 33% | 1013.1 hPa | 0 mm | - | 679 W/m² | - |
| 1778098508 | 25.56° C | 33% | 1012.8 hPa | 0 mm | - | 679 W/m² | - |
| 1778098204 | 25.56° C | 33% | 1013 hPa | 0 mm | - | 685 W/m² | - |
| 1778097900 | 24.44° C | 34% | 1013.1 hPa | 0 mm | - | 686 W/m² | - |
| 1778097597 | 25° C | 33% | 1013.1 hPa | 0 mm | - | 686 W/m² | - |
| 1778097295 | 25° C | 32% | 1013.3 hPa | 0 mm | - | 690 W/m² | - |
| 1778096990 | 25.56° C | 32% | 1013.6 hPa | 0 mm | - | 691 W/m² | - |
| 1778096688 | 24.44° C | 33% | 1013.4 hPa | 0 mm | - | 694 W/m² | - |
| 1778096385 | 24.44° C | 33% | 1013.7 hPa | 0 mm | - | 694 W/m² | - |
| 1778096082 | 25° C | 32% | 1013.8 hPa | 0 mm | - | 695 W/m² | - |
| 1778095778 | 25° C | 32% | 1013.7 hPa | 0 mm | - | 694 W/m² | - |
| 1778095475 | 24.44° C | 34% | 1013.6 hPa | 0 mm | - | 692 W/m² | - |
| 1778095172 | 23.89° C | 36% | 1013.9 hPa | 0 mm | - | 693 W/m² | - |
| 1778094868 | 23.89° C | 36% | 1013.6 hPa | 0 mm | - | 691 W/m² | - |
| 1778094566 | 25° C | 34% | 1013.8 hPa | 0 mm | - | 688 W/m² | - |
| 1778094262 | 24.44° C | 34% | 1014 hPa | 0 mm | - | 687 W/m² | - |
| 1778093959 | 23.89° C | 34% | 1013.9 hPa | 0 mm | - | 684 W/m² | - |
| 1778093656 | 23.89° C | 34% | 1014 hPa | 0 mm | - | 683 W/m² | - |
| 1778093353 | 23.33° C | 34% | 1014.1 hPa | 0 mm | - | 678 W/m² | - |
| 1778093050 | 23.33° C | 35% | 1014.2 hPa | 0 mm | - | 674 W/m² | - |
| 1778092747 | 22.78° C | 37% | 1014.3 hPa | 0 mm | - | 672 W/m² | - |
| 1778092443 | 23.33° C | 37% | 1014.2 hPa | 0 mm | - | 666 W/m² | - |
| 1778092140 | 22.78° C | 37% | 1014.1 hPa | 0 mm | - | 661 W/m² | - |
* Rain latest hour (hover to see other rain measurements)
** Current wind speed in m/s (hover to see current wind gust speed)